GW0500 Weather Reports


time (UTC)temp
C
wind
direction
speed
KPH
gust
KPH
rain 1hr
cm
rain 24hr
cm
rain mn
cm
humidity
%
barometer
mb
20260906203102 19 65 0.0 9.7 0.00 0.18 0.18 84 1021.5
20260906202547 19 0 0.0 11.3 0.00 0.18 0.18 84 1021.5
20260906202045 19 0 1.6 11.3 0.00 0.18 0.18 83 1021.5
20260906201607 20 59 0.0 4.8 0.00 0.18 0.18 85 1021.6
20260906201044 20 0 0.0 4.8 0.00 0.18 0.18 85 1021.6
20260906200544 20 307 0.0 4.8 0.00 0.18 0.18 85 1021.6
20260906195544 20 306 0.0 4.8 0.00 0.18 0.18 83 1021.7
20260906195045 20 0 0.0 16.1 0.00 0.18 0.18 82 1021.7
20260906194606 20 0 0.0 16.1 0.00 0.18 0.18 83 1021.8
20260906194049 20 41 1.6 16.1 0.03 0.18 0.18 82 1021.9
20260906193545 20 0 1.6 8.0 0.03 0.18 0.18 81 1021.8
20260906193100 20 59 0.0 8.0 0.03 0.18 0.18 82 1021.8
20260906192545 20 55 0.0 9.7 0.03 0.18 0.18 82 1021.8
20260906192045 20 55 1.6 9.7 0.03 0.18 0.18 82 1021.8
20260906191603 20 86 0.0 6.4 0.03 0.18 0.18 85 1021.9
20260906191047 20 0 0.0 6.4 0.03 0.18 0.18 86 1021.9
20260906190549 20 173 0.0 6.4 0.03 0.18 0.18 85 1021.8
20260906185545 20 0 0.0 3.2 0.03 0.18 0.18 88 1022.0
20260906185047 20 111 0.0 14.5 0.03 0.18 0.18 86 1022.0
20260906184607 20 0 3.2 14.5 0.03 0.18 0.18 85 1022.1
20260906184045 20 65 1.6 3.2 0.00 0.15 0.15 86 1022.0
20260906183546 20 0 0.0 8.0 0.00 0.15 0.15 85 1022.1
20260906183105 20 0 1.6 8.0 0.00 0.15 0.15 84 1022.0
20260906182546 20 111 1.6 8.0 0.00 0.15 0.15 85 1022.1
20260906182115 20 0 1.6 4.8 0.00 0.15 0.15 86 1022.0
20260906182043 20 0 1.6 4.8 0.00 0.15 0.15 86 1022.0
20260906181610 21 0 0.0 0.0 0.00 0.15 0.15 90 1022.0
20260906181046 20 0 0.0 0.0 0.00 0.15 0.15 90 1022.0
20260906180552 20 0 0.0 0.0 0.00 0.15 0.15 90 1022.0
20260906180109 20 0 0.0 0.0 0.00 0.15 0.15 90 1022.0
20260906175552 20 0 0.0 1.6 0.00 0.15 0.15 90 1022.0
20260906175052 20 0 0.0 1.6 0.00 0.15 0.15 91 1022.0
20260906174603 20 0 0.0 1.6 0.00 0.15 0.15 91 1022.0
20260906174050 20 0 0.0 1.6 0.00 0.15 0.15 92 1022.0
20260906173553 20 0 0.0 1.6 0.00 0.15 0.15 92 1021.9
20260906173101 20 0 0.0 0.0 0.00 0.15 0.15 92 1021.9
20260906172550 20 0 0.0 0.0 0.00 0.15 0.15 93 1021.9
20260906172053 19 0 0.0 0.0 0.00 0.15 0.15 93 1021.9
20260906171606 19 0 0.0 0.0 0.00 0.15 0.15 92 1021.9
20260906171051 19 0 0.0 0.0 0.00 0.15 0.15 93 1021.9
20260906170618 19 0 0.0 0.0 0.00 0.15 0.15 93 1021.8
20260906170108 19 0 0.0 0.0 0.00 0.15 0.15 94 1021.8
20260906165551 19 0 0.0 0.0 0.00 0.15 0.15 93 1021.7
20260906165051 19 0 0.0 0.0 0.00 0.15 0.15 94 1021.6
20260906164715 18 0 0.0 0.0 0.00 0.15 0.15 94 1021.5
20260906164055 18 0 0.0 0.0 0.00 0.15 0.15 94 1021.6
20260906163552 18 0 0.0 0.0 0.00 0.15 0.15 94 1021.4
20260906163110 18 0 0.0 0.0 0.00 0.15 0.15 94 1021.4
20260906162552 18 0 0.0 0.0 0.00 0.15 0.15 94 1021.4
20260906162154 18 0 0.0 0.0 0.00 0.15 0.15 94 1021.5
20260906162051 18 0 0.0 0.0 0.00 0.15 0.15 94 1021.5
20260906161645 18 0 0.0 0.0 0.00 0.15 0.15 94 1021.4
20260906161054 18 0 0.0 0.0 0.00 0.15 0.15 94 1021.5
20260906160553 18 0 0.0 0.0 0.00 0.15 0.15 94 1021.6
20260906160110 18 0 0.0 0.0 0.00 0.15 0.15 94 1021.5
20260906155551 18 0 0.0 0.0 0.00 0.15 0.15 94 1021.4
20260906155053 18 0 0.0 0.0 0.00 0.15 0.15 94 1021.4
20260906154605 18 0 0.0 1.6 0.00 0.15 0.15 94 1021.5
20260906154051 18 0 0.0 1.6 0.00 0.15 0.15 94 1021.3
20260906153553 18 0 0.0 1.6 0.00 0.15 0.15 94 1021.2
20260906153104 18 0 0.0 3.2 0.00 0.15 0.15 94 1021.3
20260906152546 18 0 0.0 3.2 0.00 0.15 0.15 94 1021.3
20260906152048 17 0 0.0 1.6 0.00 0.15 0.15 94 1021.2
20260906151629 17 0 0.0 1.6 0.00 0.15 0.15 94 1021.3
20260906151045 17 0 0.0 1.6 0.00 0.15 0.15 94 1021.3
20260906150551 17 0 0.0 1.6 0.00 0.15 0.15 94 1021.4
20260906145545 17 0 0.0 1.6 0.00 0.15 0.15 94 1021.3
20260906145045 17 0 0.0 1.6 0.00 0.15 0.15 94 1021.4
20260906144605 17 0 0.0 1.6 0.00 0.15 0.15 94 1021.3
20260906144117 17 0 0.0 3.2 0.00 0.15 0.15 94 1021.2
20260906143545 17 0 0.0 3.2 0.00 0.15 0.15 94 1021.1
20260906143115 17 0 0.0 3.2 0.00 0.15 0.15 94 1021.1
20260906142619 17 0 0.0 3.2 0.00 0.15 0.15 94 1020.8
20260906142046 17 0 0.0 3.2 0.00 0.15 0.15 94 1020.8
20260906141603 17 0 0.0 1.6 0.00 0.15 0.15 94 1020.7
20260906141045 17 0 0.0 0.0 0.00 0.15 0.15 94 1020.7
20260906140546 17 0 0.0 0.0 0.00 0.15 0.15 93 1020.6
20260906140106 17 0 0.0 0.0 0.00 0.15 0.15 93 1020.5
20260906135625 17 0 0.0 0.0 0.00 0.15 0.15 93 1020.5
20260906135046 17 0 0.0 0.0 0.00 0.15 0.15 93 1020.5
20260906134601 17 0 0.0 0.0 0.00 0.15 0.15 93 1020.4
20260906134119 17 0 0.0 0.0 0.00 0.15 0.15 93 1020.3
20260906133548 17 0 0.0 0.0 0.00 0.15 0.15 93 1020.2
20260906133104 17 0 0.0 0.0 0.00 0.15 0.15 93 1020.2
20260906132545 17 0 0.0 0.0 0.00 0.15 0.15 93 1020.0
20260906132046 17 0 0.0 0.0 0.00 0.15 0.15 93 1020.0
20260906131601 17 0 0.0 0.0 0.00 0.15 0.15 93 1020.0
20260906131044 17 0 0.0 0.0 0.00 0.15 0.15 93 1020.0
20260906130547 17 0 0.0 0.0 0.00 0.15 0.15 93 1020.0
20260906130104 17 0 0.0 1.6 0.00 0.15 0.15 93 1020.0
20260906125545 17 0 0.0 1.6 0.00 0.15 0.15 93 1020.0
20260906125045 17 56 0.0 1.6 0.00 0.15 0.15 93 1019.9
20260906124624 17 0 0.0 0.0 0.00 0.15 0.15 93 1019.9
20260906124045 17 0 0.0 0.0 0.00 0.15 0.15 93 1019.7
20260906123544 17 0 0.0 0.0 0.00 0.15 0.15 93 1019.7
20260906123127 17 0 0.0 1.6 0.00 0.15 0.15 93 1019.7
20260906122545 17 0 0.0 1.6 0.00 0.15 0.15 92 1019.9
20260906122047 17 0 0.0 1.6 0.03 0.15 0.15 92 1019.9
20260906121558 17 0 0.0 1.6 0.03 0.15 0.15 92 1019.9
20260906121047 17 0 0.0 1.6 0.03 0.15 0.15 92 1019.9
20260906120550 17 0 0.0 1.6 0.05 0.15 0.15 92 1019.9
20260906120115 17 0 0.0 3.2 0.08 0.15 0.15 92 1020.0
20260906115548 17 0 0.0 3.2 0.10 0.15 0.15 92 1020.0
20260906115047 17 56 0.0 1.6 0.13 0.15 0.15 92 1020.0
20260906114558 17 0 0.0 1.6 0.13 0.15 0.15 92 1020.0
20260906114047 17 0 0.0 1.6 0.15 0.15 0.15 92 1020.2
20260906113545 17 0 0.0 1.6 0.15 0.15 0.15 92 1020.2
20260906113102 17 0 0.0 3.2 0.15 0.15 0.15 92 1020.1
20260906112544 17 0 0.0 3.2 0.15 0.15 0.15 92 1020.1
20260906112045 17 0 0.0 3.2 0.13 0.13 0.13 92 1020.2
20260906111608 17 0 0.0 4.8 0.13 0.13 0.13 92 1020.2
20260906111045 17 50 0.0 4.8 0.13 0.13 0.13 92 1020.2
20260906110551 17 0 0.0 4.8 0.10 0.10 0.10 91 1020.2
20260906110058 17 0 0.0 4.8 0.08 0.08 0.08 90 1020.2
20260906105549 17 0 0.0 4.8 0.05 0.05 0.05 89 1020.2
20260906105045 17 0 0.0 0.0 0.03 0.03 0.03 89 1020.2
20260906104601 17 0 0.0 0.0 0.03 0.03 0.03 87 1020.2
20260906104047 17 0 0.0 0.0 0.00 0.00 0.00 87 1020.2
20260906103546 17 0 0.0 0.0 0.00 0.00 0.00 87 1020.1
20260906103059 17 0 0.0 0.0 0.00 0.00 0.00 86 1020.0
20260906102545 17 0 0.0 0.0 0.00 0.00 0.00 85 1020.0
20260906102051 17 0 0.0 0.0 0.00 0.00 0.00 85 1019.9
20260906101558 17 0 0.0 0.0 0.00 0.00 0.00 83 1019.9
20260906101048 17 0 0.0 0.0 0.00 0.00 0.00 81 1020.0
20260906100549 18 0 0.0 1.6 0.00 0.00 0.00 80 1020.0
20260906100058 18 0 0.0 1.6 0.00 0.00 0.00 77 1020.1
20260906095547 18 0 0.0 0.0 0.00 0.00 0.00 74 1020.1
20260906095048 18 0 0.0 1.6 0.00 0.00 0.00 72 1020.0
20260906094604 18 0 0.0 1.6 0.00 0.00 0.00 70 1019.9
20260906094047 18 0 0.0 0.0 0.00 0.00 0.00 69 1020.0
20260906093548 18 0 0.0 0.0 0.00 0.00 0.00 68 1020.0
20260906093100 18 0 0.0 0.0 0.00 0.00 0.00 67 1020.0
20260906092549 18 0 0.0 0.0 0.00 0.00 0.00 67 1020.0
20260906092048 18 0 0.0 0.0 0.00 0.00 0.00 69 1020.1
20260906091556 18 0 0.0 0.0 0.00 0.00 0.00 68 1020.1
20260906091048 18 0 0.0 0.0 0.00 0.00 0.00 68 1020.1
20260906090547 18 0 0.0 0.0 0.00 0.00 0.00 68 1020.1
20260906085548 18 0 0.0 0.0 0.00 0.00 0.00 68 1020.2
20260906085045 18 0 0.0 0.0 0.00 0.00 0.00 69 1020.2
20260906084601 18 0 0.0 1.6 0.00 0.00 0.00 70 1020.2
20260906084050 18 0 0.0 1.6 0.00 0.00 0.00 69 1020.3
20260906083544 18 0 0.0 1.6 0.00 0.00 0.00 70 1020.3
20260906083101 18 0 0.0 0.0 0.00 0.00 0.00 71 1020.3
20260906082545 18 0 0.0 0.0 0.00 0.00 0.00 71 1020.3
20260906082049 18 0 0.0 1.6 0.00 0.00 0.00 71 1020.4
20260906081603 18 0 0.0 1.6 0.00 0.00 0.00 72 1020.3
20260906081058 18 0 0.0 3.2 0.00 0.00 0.00 72 1020.5
20260906080545 18 65 0.0 3.2 0.00 0.00 0.00 72 1020.5
20260906080110 18 0 0.0 0.0 0.00 0.00 0.00 72 1020.6
20260906075545 18 0 0.0 0.0 0.00 0.00 0.00 72 1020.8
20260906075044 18 0 0.0 0.0 0.00 0.00 0.00 71 1020.8
20260906074602 18 0 0.0 0.0 0.00 0.00 0.00 69 1020.9
20260906074045 19 0 0.0 0.0 0.00 0.00 0.00 66 1020.8
20260906073545 19 0 0.0 0.0 0.00 0.00 0.00 64 1020.9
20260906073101 19 0 0.0 0.0 0.00 0.00 0.00 63 1021.0
20260906072545 19 0 0.0 0.0 0.00 0.00 0.00 62 1020.8
20260906072046 19 0 0.0 0.0 0.00 0.00 0.00 62 1020.8
20260906071604 19 0 0.0 0.0 0.00 0.00 0.00 62 1021.0
20260906071043 19 0 0.0 0.0 0.00 0.00 0.00 63 1020.9
20260906070544 19 0 0.0 0.0 0.00 0.00 0.00 63 1020.9
20260906070058 19 0 0.0 0.0 0.00 0.00 0.00 63 1020.9
20260906065543 19 0 0.0 0.0 0.00 0.00 0.00 63 1020.9
20260906065044 19 0 0.0 0.0 0.00 0.00 0.00 63 1020.8
20260906064602 19 0 0.0 0.0 0.00 0.00 0.00 62 1020.8
20260906064045 19 0 0.0 0.0 0.00 0.00 0.00 61 1020.9
20260906063544 19 0 0.0 0.0 0.00 0.00 0.00 60 1020.9
20260906063102 19 0 0.0 0.0 0.00 0.00 0.00 59 1020.8
20260906062545 19 0 0.0 0.0 0.00 0.00 0.00 58 1020.8
20260906062043 19 0 0.0 0.0 0.00 0.00 0.00 58 1020.6
20260906061605 19 0 0.0 0.0 0.00 0.00 0.00 58 1020.7
20260906061045 19 0 0.0 0.0 0.00 0.00 0.00 58 1020.8
20260906060543 19 0 0.0 0.0 0.00 0.00 0.00 57 1020.9
20260906060104 19 0 0.0 0.0 0.00 0.00 0.00 57 1020.8
20260906055542 19 0 0.0 0.0 0.00 0.00 0.00 57 1020.9
20260906055045 19 0 0.0 0.0 0.00 0.00 0.00 56 1020.8
20260906054602 19 0 0.0 0.0 0.00 0.00 0.00 57 1020.9
20260906054045 19 0 0.0 0.0 0.00 0.00 0.00 56 1020.8
20260906053545 19 0 0.0 0.0 0.00 0.00 0.00 56 1020.9
20260906053105 19 0 0.0 0.0 0.00 0.00 0.00 56 1020.9
20260906052546 19 0 0.0 0.0 0.00 0.00 0.00 55 1020.9
20260906052045 19 0 0.0 0.0 0.00 0.00 0.00 55 1020.9
20260906051607 19 0 0.0 0.0 0.00 0.00 0.00 55 1021.0
20260906051044 20 0 0.0 0.0 0.00 0.00 0.00 55 1021.0
20260906050545 20 0 0.0 0.0 0.00 0.00 0.00 55 1020.9
20260906045547 20 0 0.0 0.0 0.00 0.00 0.00 54 1021.0
20260906045049 20 0 0.0 0.0 0.00 0.00 0.00 54 1020.9
20260906044600 20 0 0.0 0.0 0.00 0.00 0.00 54 1021.0
20260906044045 20 0 0.0 0.0 0.00 0.00 0.00 54 1021.1
20260906043542 20 0 0.0 0.0 0.00 0.00 0.00 54 1021.1
20260906043056 20 0 0.0 0.0 0.00 0.00 0.00 54 1021.1
20260906042545 20 0 0.0 0.0 0.00 0.00 0.00 54 1021.2
20260906042043 20 0 0.0 0.0 0.00 0.00 0.00 53 1021.1
20260906041602 20 0 0.0 0.0 0.00 0.00 0.00 53 1021.0
20260906041046 20 0 0.0 0.0 0.00 0.00 0.00 53 1021.0
20260906040544 20 0 0.0 1.6 0.00 0.00 0.00 53 1021.0
20260906040118 20 0 0.0 1.6 0.00 0.00 0.00 53 1021.0
20260906035544 20 0 0.0 1.6 0.00 0.00 0.00 53 1020.8
20260906035048 20 0 0.0 1.6 0.00 0.00 0.00 53 1020.8
20260906034602 20 0 0.0 1.6 0.00 0.00 0.00 53 1020.8
20260906034045 21 0 0.0 3.2 0.00 0.00 0.00 54 1020.9
20260906033543 21 0 0.0 3.2 0.00 0.00 0.00 53 1020.7
20260906033102 21 130 0.0 3.2 0.00 0.00 0.00 54 1020.7
20260906032543 21 0 0.0 3.2 0.00 0.00 0.00 54 1020.7
20260906032043 21 0 0.0 1.6 0.00 0.00 0.00 54 1020.7
20260906031600 21 0 0.0 1.6 0.00 0.00 0.00 54 1020.6
20260906031044 21 0 0.0 1.6 0.00 0.00 0.00 55 1020.6
20260906030545 21 0 0.0 0.0 0.00 0.00 0.00 55 1020.6
20260906030110 21 0 0.0 0.0 0.00 0.00 0.00 54 1020.5
20260906025542 21 0 0.0 0.0 0.00 0.00 0.00 54 1020.4
20260906025044 21 0 0.0 0.0 0.00 0.00 0.00 54 1020.5
20260906024627 22 0 0.0 0.0 0.00 0.00 0.00 54 1020.4
20260906024046 22 0 0.0 3.2 0.00 0.00 0.00 54 1020.3
20260906023543 22 0 0.0 3.2 0.00 0.00 0.00 53 1020.2
20260906023104 22 0 0.0 1.6 0.00 0.00 0.00 53 1020.3
20260906022547 22 0 0.0 3.2 0.00 0.00 0.00 53 1020.4
20260906022043 22 0 0.0 3.2 0.00 0.00 0.00 52 1020.4
20260906021611 22 201 0.0 3.2 0.00 0.00 0.00 52 1020.4
20260906021047 22 0 0.0 3.2 0.00 0.00 0.00 52 1020.4
20260906020548 22 0 0.0 3.2 0.00 0.00 0.00 52 1020.4
20260906020100 22 94 0.0 4.8 0.00 0.00 0.00 52 1020.5
20260906015548 23 0 0.0 6.4 0.00 0.00 0.00 52 1020.6
20260906015050 23 0 0.0 8.0 0.00 0.00 0.00 52 1020.6
20260906014608 23 0 0.0 8.0 0.00 0.00 0.00 52 1020.6
20260906014048 23 0 1.6 8.0 0.00 0.00 0.00 52 1020.6
20260906013549 23 106 0.0 4.8 0.00 0.00 0.00 52 1020.6
20260906013128 23 0 0.0 6.4 0.00 0.00 0.00 51 1020.6
20260906012544 23 0 0.0 6.4 0.00 0.00 0.00 51 1020.5
20260906012046 23 169 0.0 3.2 0.00 0.00 0.00 50 1020.6
20260906011559 23 0 0.0 1.6 0.00 0.00 0.00 50 1020.5
20260906011045 23 0 0.0 6.4 0.00 0.00 0.00 50 1020.6
20260906010543 23 0 0.0 6.4 0.00 0.00 0.00 49 1020.6
20260906010119 23 0 1.6 6.4 0.00 0.00 0.00 50 1020.5
20260906005546 24 88 0.0 11.3 0.00 0.00 0.00 49 1020.6
20260906005043 24 157 0.0 11.3 0.00 0.00 0.00 49 1020.5
20260906004610 24 144 0.0 11.3 0.00 0.00 0.00 48 1020.6
20260906004044 25 0 1.6 11.3 0.00 0.00 0.00 47 1020.5
20260906003544 25 143 0.0 8.0 0.00 0.00 0.00 47 1020.4
20260906003120 25 0 0.0 8.0 0.00 0.00 0.00 47 1020.5
20260906002543 25 137 1.6 6.4 0.00 0.00 0.00 46 1020.5
20260906002046 25 162 3.2 9.7 0.00 0.00 0.00 47 1020.5
20260906001559 26 143 1.6 11.3 0.00 0.00 0.00 45 1020.5
20260906001043 26 187 1.6 11.3 0.00 0.00 0.00 44 1020.4
20260906000545 26 165 1.6 11.3 0.00 0.00 0.00 44 1020.5
20260906000106 26 163 3.2 11.3 0.00 0.00 0.00 43 1020.5
20260905235543 26 82 1.6 14.5 0.00 0.00 0.00 42 1020.3
20260905235043 26 240 1.6 16.1 0.00 0.00 0.00 42 1020.5
20260905234609 26 129 4.8 16.1 0.00 0.00 0.00 41 1020.5
20260905234046 26 157 1.6 9.7 0.00 0.00 0.00 41 1020.4
20260905233545 26 0 3.2 11.3 0.00 0.00 0.00 40 1020.5
20260905233101 26 196 4.8 11.3 0.00 0.00 0.00 40 1020.5
20260905232618 27 0 3.2 11.3 0.00 0.00 0.00 38 1020.5
20260905232045 27 190 3.2 16.1 0.00 0.00 0.00 38 1020.5
20260905231558 27 290 3.2 16.1 0.00 0.00 0.00 37 1020.3
20260905231043 27 247 3.2 14.5 0.00 0.00 0.00 37 1020.5
20260905230548 27 115 1.6 16.1 0.00 0.00 0.00 35 1020.4
20260905230106 27 352 4.8 16.1 0.00 0.00 0.00 34 1020.3
20260905225546 27 175 4.8 14.5 0.00 0.00 0.00 35 1020.3
20260905225047 27 0 3.2 14.5 0.00 0.00 0.00 35 1020.4
20260905224559 27 191 4.8 20.9 0.00 0.00 0.00 35 1020.5
20260905224045 27 258 8.0 20.9 0.00 0.00 0.00 34 1020.6
20260905223545 27 153 4.8 19.3 0.00 0.00 0.00 34 1020.3
20260905223105 27 126 4.8 19.3 0.00 0.00 0.00 37 1020.4
20260905222548 27 138 3.2 12.9 0.00 0.00 0.00 38 1020.6
20260905222050 27 153 4.8 14.5 0.00 0.00 0.00 37 1020.5
20260905221605 27 196 4.8 14.5 0.00 0.00 0.00 40 1020.5
20260905221047 27 284 3.2 17.7 0.00 0.00 0.00 41 1020.7
20260905220548 27 101 3.2 17.7 0.00 0.00 0.00 39 1020.6
20260905215545 27 209 3.2 16.1 0.00 0.00 0.00 40 1020.7
20260905215047 27 132 4.8 16.1 0.00 0.00 0.00 41 1020.6
20260905214557 27 159 3.2 16.1 0.00 0.00 0.00 39 1020.8
20260905214044 27 0 3.2 19.3 0.00 0.00 0.00 39 1020.8
20260905213548 27 238 4.8 19.3 0.00 0.00 0.00 39 1021.0
20260905213106 27 142 4.8 16.1 0.00 0.00 0.00 38 1021.1
20260905212545 27 209 6.4 16.1 0.00 0.00 0.00 38 1021.1
20260905212044 27 209 4.8 16.1 0.00 0.00 0.00 39 1021.1
20260905211605 27 172 3.2 12.9 0.00 0.00 0.00 40 1021.1
20260905211049 27 107 4.8 12.9 0.00 0.00 0.00 39 1021.1
20260905210549 27 144 4.8 12.9 0.00 0.00 0.00 39 1021.2
20260905210059 27 136 3.2 12.9 0.00 0.00 0.00 38 1021.2
20260905205544 27 166 4.8 12.9 0.00 0.00 0.00 37 1021.5
20260905205044 27 227 3.2 14.5 0.00 0.00 0.00 36 1021.4
20260905204601 27 157 3.2 14.5 0.00 0.00 0.00 36 1021.4
20260905204047 26 172 3.2 14.5 0.00 0.00 0.00 33 1021.6
20260905203546 27 307 1.6 16.1 0.00 0.00 0.00 33 1021.4